User: anonymous   Login
Location: Aciu?a
(46.2833°N, 22.4500°E)
Time: 22:35:58
(UTC+00:00)
Language:

Cosmos 1626 Rocket - Orbit

View from above orbital plane
View from above orbital plane
View from above satellite
View from above satellite

Ground track
Ground track

The orbit data is extracted from the following two-line orbital elements,

1 15495U 85009B   22026.53787830  .00000151  00000-0  15245-4 0  9997
2 15495  82.5222  49.4867 0020364 168.3333 191.8359 14.83954108978583
Epoch (UTC): 26 January 2022 12:54:32
Eccentricity: 0.0020364
inclination: 82.5222°
perigee height: 602 km
apogee height: 631 km
right ascension of ascending node: 49.4867°
argument of perigee: 168.3333°
revolutions per day: 14.83954108
mean anomaly at epoch: 191.8359°
orbit number at epoch: 97858

The dashed part of the orbit path shows where the satellite is in the earth's shadow,  

DLR